| time (UTC) | temp F | wind direction | speed MPH | gust MPH | rain 1hr in | rain 24hr in | rain mn in | humidity % | barometer mb |
| 20260505094019 | 51 | 0 | 0.0 | 0.0 | 0.00 | 0.27 | 0.00 | 10 | 1010.7 |
| 20260505093016 | 51 | 0 | 0.0 | 0.0 | 0.00 | 0.27 | 0.00 | 10 | 1010.7 |
| 20260505092016 | 51 | 0 | 0.0 | 0.0 | 0.00 | 0.27 | 0.00 | 10 | 1010.7 |
| 20260505091016 | 51 | 0 | 0.0 | 0.0 | 0.00 | 0.27 | 0.00 | 10 | 1010.8 |
| 20260505085015 | 51 | 0 | 0.0 | 0.0 | 0.00 | 0.27 | 0.00 | 10 | 1010.7 |
| 20260505084017 | 51 | 0 | 0.0 | 0.0 | 0.00 | 0.27 | 0.00 | 10 | 1010.6 |
| 20260505083016 | 51 | 0 | 0.0 | 0.0 | 0.00 | 0.27 | 0.00 | 10 | 1010.7 |
| 20260505082016 | 51 | 0 | 0.0 | 0.0 | 0.00 | 0.27 | 0.00 | 10 | 1010.8 |
| 20260505081017 | 51 | 0 | 0.0 | 0.0 | 0.00 | 0.27 | 0.00 | 10 | 1010.8 |
| 20260505075017 | 51 | 0 | 0.0 | 0.0 | 0.00 | 0.27 | 0.00 | 10 | 1011.1 |
| 20260505074017 | 51 | 0 | 0.0 | 0.0 | 0.00 | 0.27 | 0.00 | 10 | 1011.1 |
| 20260505073018 | 51 | 0 | 0.0 | 0.0 | 0.00 | 0.27 | 0.00 | 10 | 1011.0 |
| 20260505072016 | 51 | 0 | 0.0 | 0.0 | 0.00 | 0.27 | 0.00 | 10 | 1011.0 |
| 20260505071032 | 51 | 0 | 0.0 | 0.0 | 0.00 | 0.27 | 0.00 | 10 | 1011.1 |
| 20260505070017 | 51 | 0 | 0.0 | 0.0 | 0.00 | 0.27 | 0.00 | 10 | 1011.1 |
| 20260505065016 | 51 | 0 | 0.0 | 0.0 | 0.00 | 0.27 | 0.00 | 10 | 1011.2 |
| 20260505063016 | 51 | 0 | 0.0 | 0.0 | 0.00 | 0.27 | 0.00 | 10 | 1011.2 |
| 20260505062016 | 51 | 0 | 0.0 | 0.0 | 0.00 | 0.27 | 0.00 | 10 | 1011.2 |
| 20260505061016 | 51 | 0 | 0.0 | 0.0 | 0.00 | 0.27 | 0.00 | 10 | 1011.2 |
| 20260505060017 | 51 | 0 | 0.0 | 0.0 | 0.00 | 0.27 | 0.00 | 10 | 1011.2 |
| 20260505055016 | 51 | 0 | 0.0 | 0.0 | 0.00 | 0.27 | 0.00 | 10 | 1011.2 |
| 20260505054016 | 51 | 0 | 0.0 | 0.0 | 0.00 | 0.27 | 0.00 | 10 | 1011.2 |
| 20260505053016 | 51 | 0 | 0.0 | 0.0 | 0.00 | 0.27 | 0.00 | 10 | 1011.1 |
| 20260505051022 | 51 | 0 | 0.0 | 0.0 | 0.00 | 0.27 | 0.00 | 10 | 1011.1 |
| 20260505041017 | 51 | 0 | 0.0 | 0.0 | 0.00 | 0.27 | 0.00 | 10 | 1011.4 |
| 20260505040016 | 52 | 0 | 0.0 | 0.0 | 0.00 | 0.27 | 0.00 | 10 | 1011.4 |
| 20260505035022 | 52 | 0 | 0.0 | 0.0 | 0.00 | 0.27 | 0.00 | 10 | 1011.5 |
| 20260505033016 | 52 | 0 | 0.0 | 0.0 | 0.00 | 0.27 | 0.00 | 10 | 1011.8 |
| 20260505032016 | 52 | 0 | 0.0 | 0.0 | 0.00 | 0.27 | 0.00 | 10 | 1011.8 |
| 20260505031016 | 52 | 0 | 0.0 | 0.0 | 0.00 | 0.27 | 0.00 | 10 | 1011.8 |
| 20260505030019 | 52 | 0 | 0.0 | 0.0 | 0.00 | 0.27 | 0.00 | 10 | 1011.8 |
| 20260505025017 | 52 | 0 | 0.0 | 0.0 | 0.00 | 0.27 | 0.00 | 10 | 1011.8 |
| 20260505023022 | 52 | 0 | 0.0 | 0.0 | 0.00 | 0.27 | 0.00 | 10 | 1011.8 |
| 20260505020016 | 52 | 0 | 0.0 | 0.0 | 0.00 | 0.27 | 0.00 | 10 | 1011.7 |
| 20260505014017 | 52 | 0 | 0.0 | 0.0 | 0.00 | 0.27 | 0.00 | 10 | 1011.8 |
| 20260505013021 | 52 | 0 | 0.0 | 0.0 | 0.00 | 0.27 | 0.00 | 10 | 1011.8 |
| 20260505012019 | 52 | 0 | 0.0 | 0.0 | 0.00 | 0.27 | 0.00 | 10 | 1011.8 |
| 20260505011018 | 53 | 0 | 0.0 | 0.0 | 0.00 | 0.27 | 0.00 | 10 | 1011.8 |
| 20260505005017 | 53 | 0 | 0.0 | 0.0 | 0.00 | 0.27 | 0.00 | 10 | 1011.8 |
| 20260505004021 | 53 | 0 | 0.0 | 0.0 | 0.00 | 0.27 | 0.00 | 10 | 1011.9 |
| 20260505003022 | 53 | 0 | 0.0 | 0.0 | 0.00 | 0.27 | 0.00 | 10 | 1012.0 |
| 20260505001022 | 53 | 0 | 0.0 | 0.0 | 0.00 | 0.27 | 0.00 | 10 | 1012.1 |
| 20260505000022 | 53 | 0 | 0.0 | 0.0 | 0.00 | 0.28 | 0.00 | 10 | 1012.1 |
| 20260504235021 | 54 | 0 | 0.0 | 0.0 | 0.00 | 0.30 | 0.00 | 10 | 1012.3 |
| 20260504234021 | 54 | 0 | 0.0 | 0.0 | 0.00 | 0.33 | 0.00 | 10 | 1012.4 |
| 20260504233022 | 54 | 0 | 0.0 | 0.0 | 0.00 | 0.35 | 0.00 | 10 | 1012.5 |
| 20260504232022 | 54 | 0 | 0.0 | 0.0 | 0.00 | 0.35 | 0.00 | 10 | 1012.6 |
| 20260504231022 | 54 | 0 | 0.0 | 0.0 | 0.00 | 0.35 | 0.00 | 10 | 1012.6 |
| 20260504230022 | 54 | 0 | 0.0 | 0.0 | 0.00 | 0.36 | 0.00 | 10 | 1012.6 |
| 20260504225028 | 55 | 0 | 0.0 | 0.0 | 0.00 | 0.36 | 0.00 | 10 | 1012.7 |
| 20260504224022 | 55 | 0 | 0.0 | 0.0 | 0.00 | 0.36 | 0.00 | 10 | 1012.7 |
| 20260504223021 | 55 | 0 | 0.0 | 0.0 | 0.00 | 0.36 | 0.00 | 10 | 1012.7 |
| 20260504222023 | 55 | 0 | 0.0 | 0.0 | 0.00 | 0.36 | 0.00 | 10 | 1012.6 |
| 20260504221022 | 55 | 0 | 0.0 | 0.0 | 0.00 | 0.36 | 0.00 | 10 | 1012.6 |
| 20260504220020 | 55 | 0 | 0.0 | 0.0 | 0.00 | 0.36 | 0.00 | 10 | 1012.7 |
| 20260504215022 | 55 | 0 | 0.0 | 0.0 | 0.00 | 0.36 | 0.36 | 99 | 1012.8 |
| 20260504213050 | 55 | 0 | 0.0 | 0.0 | 0.00 | 0.36 | 0.36 | 99 | 1012.9 |
| 20260504212051 | 55 | 0 | 0.0 | 0.0 | 0.00 | 0.36 | 0.36 | 99 | 1012.9 |
| 20260504211048 | 56 | 0 | 0.0 | 0.0 | 0.00 | 0.36 | 0.36 | 99 | 1013.1 |
| 20260504210022 | 56 | 0 | 0.0 | 0.0 | 0.00 | 0.36 | 0.36 | 99 | 1013.2 |
| 20260504205042 | 56 | 0 | 0.0 | 0.0 | 0.00 | 0.36 | 0.36 | 99 | 1013.3 |
| 20260504204022 | 56 | 0 | 0.0 | 0.0 | 0.00 | 0.36 | 0.36 | 99 | 1013.3 |
| 20260504203049 | 56 | 0 | 0.0 | 0.0 | 0.00 | 0.36 | 0.36 | 99 | 1013.2 |
| 20260504202023 | 56 | 0 | 0.0 | 0.0 | 0.00 | 0.36 | 0.36 | 98 | 1013.2 |
| 20260504200023 | 57 | 0 | 0.0 | 0.0 | 0.00 | 0.36 | 0.36 | 98 | 1013.1 |
| 20260504195042 | 57 | 0 | 0.0 | 0.0 | 0.00 | 0.36 | 0.36 | 98 | 1013.0 |
| 20260504193047 | 57 | 0 | 0.0 | 0.0 | 0.00 | 0.36 | 0.36 | 98 | 1012.8 |
| 20260504190051 | 58 | 0 | 0.0 | 0.0 | 0.00 | 0.36 | 0.36 | 97 | 1012.6 |
| 20260504185052 | 58 | 0 | 0.0 | 0.0 | 0.00 | 0.36 | 0.36 | 96 | 1012.5 |
| 20260504184032 | 58 | 0 | 0.0 | 0.0 | 0.00 | 0.36 | 0.36 | 95 | 1012.3 |
| 20260504183041 | 58 | 0 | 0.0 | 0.0 | 0.00 | 0.36 | 0.36 | 95 | 1012.2 |
| 20260504182049 | 59 | 0 | 0.0 | 0.0 | 0.00 | 0.36 | 0.36 | 93 | 1012.2 |
| 20260504181037 | 59 | 0 | 0.0 | 0.0 | 0.00 | 0.36 | 0.36 | 92 | 1012.1 |
| 20260504174049 | 59 | 0 | 0.0 | 0.0 | 0.03 | 0.36 | 0.36 | 93 | 1012.3 |
| 20260504173042 | 59 | 0 | 0.0 | 0.0 | 0.05 | 0.36 | 0.36 | 93 | 1012.4 |
| 20260504172049 | 58 | 0 | 0.0 | 0.0 | 0.15 | 0.36 | 0.36 | 94 | 1012.5 |
| 20260504171046 | 58 | 0 | 0.0 | 0.0 | 0.21 | 0.36 | 0.36 | 95 | 1012.5 |
| 20260504151048 | 65 | 0 | 0.0 | 0.0 | 0.00 | 0.44 | 0.09 | 76 | 1012.4 |